Time,TemperatureF,DewpointF,PressureIn,WindDirection,WindDirectionDegrees,WindSpeedMPH,WindSpeedGustMPH,Humidity,HourlyPrecipIn,Conditions,Clouds,dailyrainin,SoftwareType,DateUTC
2013-02-22 00:00:00,41.1,40.6,30.10,South,187,1.0,1.0,98,0.00,,,0.00,WeatherCatV1.12B45,2013-02-22 08:00:00,
2013-02-22 00:05:00,41.1,40.6,30.10,South,174,0.0,2.0,98,0.00,,,0.00,WeatherCatV1.12B45,2013-02-22 08:05:00,
2013-02-22 00:10:00,41.1,40.6,30.10,SSE,167,1.0,2.0,98,0.00,,,0.00,WeatherCatV1.12B45,2013-02-22 08:10:00,
2013-02-22 00:15:00,41.1,40.6,30.10,South,178,2.0,2.0,98,0.00,,,0.00,WeatherCatV1.12B45,2013-02-22 08:15:00,
2013-02-22 00:20:00,41.1,40.6,30.10,South,178,3.0,3.0,98,0.00,,,0.00,WeatherCatV1.12B45,2013-02-22 08:20:00,
2013-02-22 00:25:00,41.1,40.6,30.10,South,180,3.0,4.0,98,0.00,,,0.00,WeatherCatV1.12B45,2013-02-22 08:25:00,
2013-02-22 00:30:00,41.1,40.6,30.10,South,171,2.0,2.0,98,0.00,,,0.00,WeatherCatV1.12B45,2013-02-22 08:30:00,
2013-02-22 00:35:00,41.1,40.6,30.09,South,185,1.0,4.0,98,0.00,,,0.00,WeatherCatV1.12B45,2013-02-22 08:35:00,
2013-02-22 00:40:00,41.1,40.6,30.10,South,179,2.0,3.0,98,0.00,,,0.00,WeatherCatV1.12B45,2013-02-22 08:40:00,
2013-02-22 00:45:00,41.1,40.6,30.09,South,180,2.0,2.0,98,0.00,,,0.00,WeatherCatV1.12B45,2013-02-22 08:45:00,
2013-02-22 00:50:00,41.1,40.6,30.09,South,178,3.0,4.0,98,0.00,,,0.00,WeatherCatV1.12B45,2013-02-22 08:50:00,
2013-02-22 00:55:00,41.1,40.6,30.09,South,175,1.0,4.0,98,0.00,,,0.00,WeatherCatV1.12B45,2013-02-22 08:55:00,
2013-02-22 01:01:00,41.1,40.6,30.09,South,170,1.0,2.0,98,0.00,,,0.00,WeatherCatV1.12B45,2013-02-22 09:01:00,
2013-02-22 01:06:00,41.1,40.6,30.09,SSE,152,1.0,3.0,98,0.00,,,0.00,WeatherCatV1.12B45,2013-02-22 09:06:00,
2013-02-22 01:11:00,41.0,40.5,30.09,SSE,167,1.0,3.0,98,0.00,,,0.00,WeatherCatV1.12B45,2013-02-22 09:11:00,
2013-02-22 01:16:00,41.0,40.7,30.09,South,170,0.0,1.0,99,0.00,,,0.01,WeatherCatV1.12B45,2013-02-22 09:16:00,
2013-02-22 01:21:00,41.0,40.7,30.09,SSE,167,0.0,3.0,99,0.00,,,0.01,WeatherCatV1.12B45,2013-02-22 09:21:00,
2013-02-22 01:26:00,41.0,40.7,30.09,South,178,2.0,2.0,99,0.00,,,0.01,WeatherCatV1.12B45,2013-02-22 09:26:00,
2013-02-22 01:31:00,40.9,40.6,30.08,SSE,157,1.0,2.0,99,0.00,,,0.01,WeatherCatV1.12B45,2013-02-22 09:31:00,
2013-02-22 01:36:00,40.9,40.6,30.09,SSE,162,0.0,1.0,99,0.00,,,0.01,WeatherCatV1.12B45,2013-02-22 09:36:00,
2013-02-22 01:41:00,40.9,40.6,30.09,South,184,0.0,1.0,99,0.00,,,0.01,WeatherCatV1.12B45,2013-02-22 09:41:00,
2013-02-22 01:46:00,40.8,40.5,30.09,South,184,0.0,0.0,99,0.00,,,0.01,WeatherCatV1.12B45,2013-02-22 09:46:00,
2013-02-22 01:51:00,40.8,40.5,30.09,South,184,0.0,1.0,99,0.00,,,0.01,WeatherCatV1.12B45,2013-02-22 09:51:00,
2013-02-22 01:56:00,40.8,40.5,30.08,South,184,0.0,1.0,99,0.00,,,0.01,WeatherCatV1.12B45,2013-02-22 09:56:00,
2013-02-22 02:01:00,40.7,40.4,30.08,South,184,1.0,1.0,99,0.00,,,0.01,WeatherCatV1.12B45,2013-02-22 10:01:00,
2013-02-22 02:06:00,40.7,40.4,30.08,South,184,1.0,1.0,99,0.00,,,0.01,WeatherCatV1.12B45,2013-02-22 10:06:00,
2013-02-22 02:11:00,40.7,40.4,30.08,South,181,0.0,0.0,99,0.00,,,0.01,WeatherCatV1.12B45,2013-02-22 10:11:00,
2013-02-22 02:16:00,40.7,40.4,30.08,South,181,0.0,2.0,99,0.00,,,0.01,WeatherCatV1.12B45,2013-02-22 10:16:00,
2013-02-22 02:21:00,40.6,40.3,30.07,South,181,0.0,1.0,99,0.00,,,0.01,WeatherCatV1.12B45,2013-02-22 10:21:00,
2013-02-22 02:26:00,40.6,40.3,30.07,South,173,1.0,2.0,99,0.00,,,0.01,WeatherCatV1.12B45,2013-02-22 10:26:00,
2013-02-22 02:31:00,40.6,40.3,30.07,South,186,1.0,1.0,99,0.00,,,0.01,WeatherCatV1.12B45,2013-02-22 10:31:00,
2013-02-22 02:36:00,40.6,40.3,30.07,South,185,0.0,2.0,99,0.00,,,0.02,WeatherCatV1.12B45,2013-02-22 10:36:00,
2013-02-22 02:41:00,40.6,40.3,30.07,South,186,0.0,1.0,99,0.00,,,0.02,WeatherCatV1.12B45,2013-02-22 10:41:00,
2013-02-22 02:46:00,40.6,40.3,30.07,SW,217,1.0,1.0,99,0.00,,,0.02,WeatherCatV1.12B45,2013-02-22 10:46:00,
2013-02-22 02:51:00,40.6,40.3,30.07,SSW,213,1.0,1.0,99,0.00,,,0.02,WeatherCatV1.12B45,2013-02-22 10:51:00,
2013-02-22 02:56:00,40.6,40.6,30.07,SSW,204,0.0,2.0,100,0.00,,,0.02,WeatherCatV1.12B45,2013-02-22 10:56:00,
2013-02-22 03:01:00,40.6,40.6,30.05,South,181,3.0,3.0,100,0.00,,,0.02,WeatherCatV1.12B45,2013-02-22 11:01:00,
2013-02-22 03:06:00,40.6,40.6,30.05,South,178,2.0,3.0,100,0.00,,,0.02,WeatherCatV1.12B45,2013-02-22 11:06:00,
2013-02-22 03:11:00,40.6,40.6,30.04,South,176,1.0,2.0,100,0.00,,,0.02,WeatherCatV1.12B45,2013-02-22 11:11:00,
2013-02-22 03:16:00,40.6,40.6,30.05,SSE,167,0.0,1.0,100,0.00,,,0.02,WeatherCatV1.12B45,2013-02-22 11:16:00,
2013-02-22 03:21:00,40.6,40.6,30.05,SSW,194,1.0,3.0,100,0.00,,,0.02,WeatherCatV1.12B45,2013-02-22 11:21:00,
2013-02-22 03:26:00,40.7,40.7,30.04,SSE,167,1.0,2.0,100,0.00,,,0.02,WeatherCatV1.12B45,2013-02-22 11:26:00,
2013-02-22 03:31:00,40.6,40.6,30.04,South,189,1.0,2.0,100,0.00,,,0.02,WeatherCatV1.12B45,2013-02-22 11:31:00,
2013-02-22 03:36:00,40.6,40.6,30.03,South,186,2.0,3.0,100,0.00,,,0.02,WeatherCatV1.12B45,2013-02-22 11:36:00,
2013-02-22 03:41:00,40.7,40.7,30.03,South,180,3.0,3.0,100,0.00,,,0.02,WeatherCatV1.12B45,2013-02-22 11:41:00,
2013-02-22 03:46:00,40.7,40.7,30.02,South,180,0.0,2.0,100,0.00,,,0.02,WeatherCatV1.12B45,2013-02-22 11:46:00,
2013-02-22 03:51:00,40.7,40.7,30.02,South,169,0.0,1.0,100,0.00,,,0.02,WeatherCatV1.12B45,2013-02-22 11:51:00,
2013-02-22 03:56:00,40.7,40.7,30.02,South,169,1.0,3.0,100,0.00,,,0.03,WeatherCatV1.12B45,2013-02-22 11:56:00,
2013-02-22 04:01:00,40.7,40.7,30.01,South,177,2.0,3.0,100,0.00,,,0.03,WeatherCatV1.12B45,2013-02-22 12:01:00,
2013-02-22 04:06:00,40.7,40.7,30.01,South,183,2.0,3.0,100,0.00,,,0.03,WeatherCatV1.12B45,2013-02-22 12:06:00,
2013-02-22 04:11:00,40.7,40.7,30.01,South,169,3.0,4.0,100,0.00,,,0.03,WeatherCatV1.12B45,2013-02-22 12:11:00,
2013-02-22 04:16:00,40.8,40.8,30.02,SSE,155,3.0,4.0,100,0.00,,,0.03,WeatherCatV1.12B45,2013-02-22 12:16:00,
2013-02-22 04:21:00,40.7,40.7,30.01,South,180,2.0,4.0,100,0.00,,,0.03,WeatherCatV1.12B45,2013-02-22 12:21:00,
2013-02-22 04:26:00,40.7,40.7,30.00,SSE,159,2.0,4.0,100,0.00,,,0.03,WeatherCatV1.12B45,2013-02-22 12:26:00,
2013-02-22 04:31:00,40.8,40.8,30.00,SSE,163,1.0,3.0,100,0.00,,,0.03,WeatherCatV1.12B45,2013-02-22 12:31:00,
2013-02-22 04:36:00,40.8,40.8,30.00,South,182,1.0,3.0,100,0.00,,,0.03,WeatherCatV1.12B45,2013-02-22 12:36:00,
2013-02-22 04:41:00,40.8,40.8,30.00,South,180,0.0,3.0,100,0.00,,,0.03,WeatherCatV1.12B45,2013-02-22 12:41:00,
2013-02-22 04:46:00,40.8,40.8,30.00,South,174,3.0,4.0,100,0.00,,,0.03,WeatherCatV1.12B45,2013-02-22 12:46:00,
2013-02-22 04:51:00,40.8,40.8,30.00,South,171,2.0,3.0,100,0.00,,,0.03,WeatherCatV1.12B45,2013-02-22 12:51:00,
2013-02-22 04:56:00,40.8,40.8,29.99,SSE,165,3.0,4.0,100,0.00,,,0.03,WeatherCatV1.12B45,2013-02-22 12:56:00,
2013-02-22 05:01:00,40.8,40.8,29.99,South,190,2.0,3.0,100,0.00,,,0.04,WeatherCatV1.12B45,2013-02-22 13:01:00,
2013-02-22 05:07:00,40.8,40.8,29.99,South,183,1.0,4.0,100,0.00,,,0.04,WeatherCatV1.12B45,2013-02-22 13:07:00,
2013-02-22 05:12:00,40.8,40.8,29.99,South,180,2.0,4.0,100,0.00,,,0.04,WeatherCatV1.12B45,2013-02-22 13:12:00,
2013-02-22 05:17:00,40.8,40.8,29.99,South,180,2.0,3.0,100,0.00,,,0.04,WeatherCatV1.12B45,2013-02-22 13:17:00,
2013-02-22 05:22:00,40.8,40.8,29.98,South,171,2.0,4.0,100,0.00,,,0.04,WeatherCatV1.12B45,2013-02-22 13:22:00,
2013-02-22 05:27:00,40.8,40.8,29.98,South,188,1.0,6.0,100,0.00,,,0.04,WeatherCatV1.12B45,2013-02-22 13:27:00,
2013-02-22 05:32:00,40.8,40.8,29.97,SSW,194,2.0,3.0,100,0.00,,,0.04,WeatherCatV1.12B45,2013-02-22 13:32:00,
2013-02-22 05:37:00,40.9,40.9,29.97,SSW,196,4.0,4.0,100,0.00,,,0.04,WeatherCatV1.12B45,2013-02-22 13:37:00,
2013-02-22 05:42:00,40.9,40.9,29.96,South,170,2.0,4.0,100,0.00,,,0.04,WeatherCatV1.12B45,2013-02-22 13:42:00,
2013-02-22 05:47:00,41.0,41.0,29.95,South,180,2.0,5.0,100,0.00,,,0.04,WeatherCatV1.12B45,2013-02-22 13:47:00,
2013-02-22 05:52:00,41.0,41.0,29.95,SSE,166,4.0,4.0,100,0.00,,,0.04,WeatherCatV1.12B45,2013-02-22 13:52:00,
2013-02-22 05:57:00,41.0,41.0,29.95,South,175,3.0,6.0,100,0.00,,,0.04,WeatherCatV1.12B45,2013-02-22 13:57:00,
2013-02-22 06:02:00,41.1,41.1,29.95,SSE,163,4.0,6.0,100,0.00,,,0.04,WeatherCatV1.12B45,2013-02-22 14:02:00,
2013-02-22 06:07:00,41.1,41.1,29.94,SSW,196,5.0,6.0,100,0.00,,,0.05,WeatherCatV1.12B45,2013-02-22 14:07:00,
2013-02-22 06:12:00,41.2,41.2,29.94,South,185,2.0,5.0,100,0.00,,,0.05,WeatherCatV1.12B45,2013-02-22 14:12:00,
2013-02-22 06:17:00,41.2,41.2,29.94,South,175,3.0,6.0,100,0.00,,,0.05,WeatherCatV1.12B45,2013-02-22 14:17:00,
2013-02-22 06:22:00,41.2,41.2,29.93,SSW,195,5.0,7.0,100,0.00,,,0.05,WeatherCatV1.12B45,2013-02-22 14:22:00,
2013-02-22 06:27:00,41.3,41.0,29.93,SSE,167,4.0,6.0,99,0.00,,,0.05,WeatherCatV1.12B45,2013-02-22 14:27:00,
2013-02-22 06:32:00,41.3,41.3,29.92,SSW,201,6.0,8.0,100,0.00,,,0.05,WeatherCatV1.12B45,2013-02-22 14:32:00,
2013-02-22 06:37:00,41.3,41.3,29.92,South,187,4.0,7.0,100,0.00,,,0.05,WeatherCatV1.12B45,2013-02-22 14:37:00,
2013-02-22 06:42:00,41.3,41.0,29.91,SSE,162,2.0,6.0,99,0.00,,,0.05,WeatherCatV1.12B45,2013-02-22 14:42:00,
2013-02-22 06:47:00,41.3,41.0,29.91,South,177,6.0,7.0,99,0.00,,,0.05,WeatherCatV1.12B45,2013-02-22 14:47:00,
2013-02-22 06:52:00,41.3,41.0,29.91,SSE,166,3.0,4.0,99,0.00,,,0.05,WeatherCatV1.12B45,2013-02-22 14:52:00,
2013-02-22 06:57:00,41.3,41.0,29.91,SSW,206,2.0,15.0,99,0.00,,,0.05,WeatherCatV1.12B45,2013-02-22 14:57:00,
2013-02-22 07:02:00,41.4,41.1,29.91,South,175,6.0,7.0,99,0.00,,,0.06,WeatherCatV1.12B45,2013-02-22 15:02:00,
2013-02-22 07:07:00,41.4,41.1,29.90,South,176,6.0,8.0,99,0.00,,,0.06,WeatherCatV1.12B45,2013-02-22 15:07:00,
2013-02-22 07:12:00,41.5,41.2,29.90,SSW,195,6.0,8.0,99,0.00,,,0.06,WeatherCatV1.12B45,2013-02-22 15:12:00,
2013-02-22 07:17:00,41.5,41.2,29.90,South,190,2.0,6.0,99,0.00,,,0.06,WeatherCatV1.12B45,2013-02-22 15:17:00,
2013-02-22 07:22:00,41.6,41.3,29.91,South,169,3.0,7.0,99,0.00,,,0.06,WeatherCatV1.12B45,2013-02-22 15:22:00,
2013-02-22 07:27:00,41.6,41.3,29.91,South,185,2.0,4.0,99,0.00,,,0.06,WeatherCatV1.12B45,2013-02-22 15:27:00,
2013-02-22 07:32:00,41.6,41.3,29.91,South,186,5.0,8.0,99,0.00,,,0.06,WeatherCatV1.12B45,2013-02-22 15:32:00,
2013-02-22 07:37:00,41.6,41.3,29.90,SSW,202,6.0,10.0,99,0.00,,,0.06,WeatherCatV1.12B45,2013-02-22 15:37:00,
2013-02-22 07:42:00,41.6,41.3,29.90,SW,222,6.0,11.0,99,0.00,,,0.06,WeatherCatV1.12B45,2013-02-22 15:42:00,
2013-02-22 07:47:00,41.7,41.4,29.90,SSE,150,3.0,7.0,99,0.00,,,0.06,WeatherCatV1.12B45,2013-02-22 15:47:00,
2013-02-22 07:52:00,41.6,41.3,29.91,South,186,6.0,7.0,99,0.00,,,0.07,WeatherCatV1.12B45,2013-02-22 15:52:00,
2013-02-22 07:57:00,41.6,41.3,29.91,South,183,3.0,11.0,99,0.00,,,0.07,WeatherCatV1.12B45,2013-02-22 15:57:00,
2013-02-22 08:02:00,41.6,41.3,29.91,SSE,161,4.0,7.0,99,0.00,,,0.07,WeatherCatV1.12B45,2013-02-22 16:02:00,
2013-02-22 08:07:00,41.6,41.3,29.90,South,182,7.0,8.0,99,0.00,,,0.07,WeatherCatV1.12B45,2013-02-22 16:07:00,
2013-02-22 08:12:00,41.6,41.3,29.90,South,170,5.0,8.0,99,0.00,,,0.07,WeatherCatV1.12B45,2013-02-22 16:12:00,
2013-02-22 08:17:00,41.6,41.3,29.90,South,180,5.0,8.0,99,0.00,,,0.07,WeatherCatV1.12B45,2013-02-22 16:17:00,
2013-02-22 08:22:00,41.5,41.2,29.89,South,172,2.0,8.0,99,0.00,,,0.07,WeatherCatV1.12B45,2013-02-22 16:22:00,
2013-02-22 08:27:00,41.5,41.2,29.89,SSE,160,5.0,6.0,99,0.00,,,0.07,WeatherCatV1.12B45,2013-02-22 16:27:00,
2013-02-22 08:32:00,41.4,41.1,29.89,SE,142,4.0,10.0,99,0.00,,,0.08,WeatherCatV1.12B45,2013-02-22 16:32:00,
2013-02-22 08:37:00,41.4,41.1,29.88,SSW,195,7.0,14.0,99,0.00,,,0.08,WeatherCatV1.12B45,2013-02-22 16:37:00,
2013-02-22 08:42:00,41.3,41.0,29.89,South,177,5.0,7.0,99,0.00,,,0.08,WeatherCatV1.12B45,2013-02-22 16:42:00,
2013-02-22 08:48:00,41.3,41.0,29.88,South,182,4.0,7.0,99,0.00,,,0.08,WeatherCatV1.12B45,2013-02-22 16:48:00,
2013-02-22 08:53:00,41.2,40.9,29.88,SE,143,5.0,8.0,99,0.00,,,0.08,WeatherCatV1.12B45,2013-02-22 16:53:00,
2013-02-22 08:58:00,41.2,40.9,29.88,SSW,192,6.0,8.0,99,0.00,,,0.08,WeatherCatV1.12B45,2013-02-22 16:58:00,
2013-02-22 09:03:00,41.2,40.9,29.88,SSW,205,4.0,13.0,99,0.00,,,0.08,WeatherCatV1.12B45,2013-02-22 17:03:00,
2013-02-22 09:08:00,41.1,40.8,29.88,South,180,5.0,7.0,99,0.00,,,0.08,WeatherCatV1.12B45,2013-02-22 17:08:00,
2013-02-22 09:13:00,41.1,40.8,29.88,SSW,193,6.0,9.0,99,0.00,,,0.08,WeatherCatV1.12B45,2013-02-22 17:13:00,
2013-02-22 09:18:00,41.0,40.7,29.88,SSW,205,5.0,10.0,99,0.00,,,0.09,WeatherCatV1.12B45,2013-02-22 17:18:00,
2013-02-22 09:23:00,40.9,40.6,29.88,South,186,7.0,10.0,99,0.00,,,0.09,WeatherCatV1.12B45,2013-02-22 17:23:00,
2013-02-22 09:28:00,40.9,40.6,29.89,SSW,203,4.0,8.0,99,0.00,,,0.09,WeatherCatV1.12B45,2013-02-22 17:28:00,
2013-02-22 09:33:00,40.9,40.6,29.88,SSW,192,7.0,7.0,99,0.00,,,0.09,WeatherCatV1.12B45,2013-02-22 17:33:00,
2013-02-22 09:38:00,40.9,40.6,29.88,SSE,166,17.0,17.0,99,0.00,,,0.09,WeatherCatV1.12B45,2013-02-22 17:38:00,
2013-02-22 09:43:00,40.9,40.6,29.87,SW,227,6.0,9.0,99,0.00,,,0.09,WeatherCatV1.12B45,2013-02-22 17:43:00,
2013-02-22 09:48:00,40.8,40.5,29.87,SSE,168,3.0,8.0,99,0.00,,,0.09,WeatherCatV1.12B45,2013-02-22 17:48:00,
2013-02-22 09:53:00,40.8,40.5,29.86,SSE,151,4.0,10.0,99,0.00,,,0.09,WeatherCatV1.12B45,2013-02-22 17:53:00,
2013-02-22 09:58:00,40.7,40.4,29.85,South,172,8.0,13.0,99,0.00,,,0.10,WeatherCatV1.12B45,2013-02-22 17:58:00,
2013-02-22 10:03:00,40.8,40.5,29.85,SSE,150,7.0,8.0,99,0.00,,,0.10,WeatherCatV1.12B45,2013-02-22 18:03:00,
2013-02-22 10:08:00,40.9,40.6,29.85,SSW,194,4.0,8.0,99,0.00,,,0.10,WeatherCatV1.12B45,2013-02-22 18:08:00,
2013-02-22 10:13:00,40.8,40.5,29.85,South,190,5.0,11.0,99,0.00,,,0.10,WeatherCatV1.12B45,2013-02-22 18:13:00,
2013-02-22 10:18:00,40.9,40.6,29.85,South,188,3.0,7.0,99,0.00,,,0.10,WeatherCatV1.12B45,2013-02-22 18:18:00,
2013-02-22 10:23:00,40.9,40.6,29.85,SE,144,5.0,11.0,99,0.00,,,0.10,WeatherCatV1.12B45,2013-02-22 18:23:00,
2013-02-22 10:28:00,40.9,40.6,29.85,SSE,161,6.0,11.0,99,0.00,,,0.10,WeatherCatV1.12B45,2013-02-22 18:28:00,
2013-02-22 10:33:00,40.8,40.5,29.85,South,173,7.0,10.0,99,0.00,,,0.11,WeatherCatV1.12B45,2013-02-22 18:33:00,
2013-02-22 10:38:00,40.8,40.5,29.85,SSW,202,7.0,12.0,99,0.00,,,0.11,WeatherCatV1.12B45,2013-02-22 18:38:00,
2013-02-22 10:43:00,40.8,40.5,29.85,South,189,4.0,9.0,99,0.00,,,0.11,WeatherCatV1.12B45,2013-02-22 18:43:00,
2013-02-22 10:48:00,40.8,40.5,29.85,SSW,207,7.0,8.0,99,0.00,,,0.11,WeatherCatV1.12B45,2013-02-22 18:48:00,
2013-02-22 10:53:00,40.7,40.4,29.85,SSW,203,4.0,9.0,99,0.00,,,0.11,WeatherCatV1.12B45,2013-02-22 18:53:00,
2013-02-22 10:58:00,40.7,40.4,29.85,South,189,4.0,7.0,99,0.00,,,0.11,WeatherCatV1.12B45,2013-02-22 18:58:00,
2013-02-22 11:03:00,40.7,40.4,29.84,SSW,201,5.0,9.0,99,0.00,,,0.11,WeatherCatV1.12B45,2013-02-22 19:03:00,
2013-02-22 11:08:00,40.6,40.3,29.84,SSW,193,7.0,9.0,99,0.00,,,0.12,WeatherCatV1.12B45,2013-02-22 19:08:00,
2013-02-22 11:13:00,40.6,40.3,29.83,South,186,5.0,9.0,99,0.00,,,0.12,WeatherCatV1.12B45,2013-02-22 19:13:00,
2013-02-22 11:18:00,40.6,40.3,29.84,South,184,3.0,5.0,99,0.00,,,0.12,WeatherCatV1.12B45,2013-02-22 19:18:00,
2013-02-22 11:23:00,40.7,40.7,29.83,SSE,161,9.0,11.0,100,0.00,,,0.12,WeatherCatV1.12B45,2013-02-22 19:23:00,
2013-02-22 11:28:00,40.7,40.4,29.83,SSW,209,4.0,7.0,99,0.00,,,0.12,WeatherCatV1.12B45,2013-02-22 19:28:00,
2013-02-22 11:33:00,40.7,40.7,29.83,South,170,4.0,4.0,100,0.00,,,0.12,WeatherCatV1.12B45,2013-02-22 19:33:00,
2013-02-22 11:38:00,40.8,40.8,29.83,South,173,2.0,6.0,100,0.00,,,0.13,WeatherCatV1.12B45,2013-02-22 19:38:00,
2013-02-22 11:43:00,40.8,40.8,29.83,South,186,5.0,6.0,100,0.00,,,0.13,WeatherCatV1.12B45,2013-02-22 19:43:00,
2013-02-22 11:48:00,40.8,40.8,29.82,SSE,167,6.0,8.0,100,0.00,,,0.13,WeatherCatV1.12B45,2013-02-22 19:48:00,
2013-02-22 11:53:00,40.8,40.8,29.82,SSE,151,5.0,7.0,100,0.00,,,0.13,WeatherCatV1.12B45,2013-02-22 19:53:00,
2013-02-22 11:58:00,40.8,40.8,29.81,SSE,148,6.0,9.0,100,0.00,,,0.13,WeatherCatV1.12B45,2013-02-22 19:58:00,
2013-02-22 12:03:00,40.9,40.9,29.81,ESE,104,5.0,7.0,100,0.00,,,0.13,WeatherCatV1.12B45,2013-02-22 20:03:00,
2013-02-22 12:08:00,40.9,40.6,29.81,South,173,3.0,7.0,99,0.00,,,0.14,WeatherCatV1.12B45,2013-02-22 20:08:00,
2013-02-22 12:13:00,41.0,41.0,29.81,SSE,159,9.0,9.0,100,0.00,,,0.14,WeatherCatV1.12B45,2013-02-22 20:13:00,
2013-02-22 12:18:00,41.1,41.1,29.81,South,180,4.0,9.0,100,0.00,,,0.14,WeatherCatV1.12B45,2013-02-22 20:18:00,
2013-02-22 12:23:00,41.1,41.1,29.80,SSW,210,3.0,8.0,100,0.00,,,0.14,WeatherCatV1.12B45,2013-02-22 20:23:00,
2013-02-22 12:28:00,41.2,41.2,29.81,SSE,163,3.0,8.0,100,0.00,,,0.14,WeatherCatV1.12B45,2013-02-22 20:28:00,
2013-02-22 12:33:00,41.2,41.2,29.80,SSE,156,2.0,7.0,100,0.00,,,0.14,WeatherCatV1.12B45,2013-02-22 20:33:00,
2013-02-22 12:38:00,41.3,41.3,29.80,SSW,209,2.0,7.0,100,0.00,,,0.15,WeatherCatV1.12B45,2013-02-22 20:38:00,
2013-02-22 12:44:00,41.3,41.3,29.80,SE,144,7.0,8.0,100,0.00,,,0.15,WeatherCatV1.12B45,2013-02-22 20:44:00,
2013-02-22 12:49:00,41.4,41.4,29.80,South,190,4.0,8.0,100,0.00,,,0.15,WeatherCatV1.12B45,2013-02-22 20:49:00,
2013-02-22 12:54:00,41.4,41.4,29.80,South,177,3.0,6.0,100,0.00,,,0.15,WeatherCatV1.12B45,2013-02-22 20:54:00,
2013-02-22 12:59:00,41.4,41.4,29.79,SSE,167,6.0,9.0,100,0.00,,,0.15,WeatherCatV1.12B45,2013-02-22 20:59:00,
2013-02-22 13:04:00,41.4,41.4,29.79,South,187,2.0,7.0,100,0.00,,,0.15,WeatherCatV1.12B45,2013-02-22 21:04:00,
2013-02-22 13:09:00,41.4,41.4,29.79,South,191,3.0,7.0,100,0.00,,,0.16,WeatherCatV1.12B45,2013-02-22 21:09:00,
2013-02-22 13:14:00,41.4,41.4,29.78,South,189,2.0,6.0,100,0.00,,,0.16,WeatherCatV1.12B45,2013-02-22 21:14:00,
2013-02-22 13:19:00,41.4,41.4,29.79,SSW,207,4.0,10.0,100,0.00,,,0.16,WeatherCatV1.12B45,2013-02-22 21:19:00,
2013-02-22 13:24:00,41.5,41.5,29.79,South,183,2.0,7.0,100,0.00,,,0.16,WeatherCatV1.12B45,2013-02-22 21:24:00,
2013-02-22 13:29:00,41.5,41.5,29.78,South,189,1.0,9.0,100,0.00,,,0.16,WeatherCatV1.12B45,2013-02-22 21:29:00,
2013-02-22 13:34:00,41.6,41.6,29.78,South,169,3.0,5.0,100,0.00,,,0.16,WeatherCatV1.12B45,2013-02-22 21:34:00,
2013-02-22 13:39:00,41.7,41.7,29.78,South,190,0.0,9.0,100,0.00,,,0.17,WeatherCatV1.12B45,2013-02-22 21:39:00,
2013-02-22 13:44:00,41.8,41.8,29.78,South,181,0.0,6.0,100,0.00,,,0.17,WeatherCatV1.12B45,2013-02-22 21:44:00,
2013-02-22 13:49:00,42.0,42.0,29.78,SW,219,1.0,6.0,100,0.00,,,0.17,WeatherCatV1.12B45,2013-02-22 21:49:00,
2013-02-22 13:54:00,42.2,42.2,29.78,South,172,4.0,6.0,100,0.00,,,0.17,WeatherCatV1.12B45,2013-02-22 21:54:00,
2013-02-22 13:59:00,42.3,42.3,29.78,SSE,161,5.0,7.0,100,0.00,,,0.17,WeatherCatV1.12B45,2013-02-22 21:59:00,
2013-02-22 14:04:00,42.5,42.5,29.77,South,169,5.0,7.0,100,0.00,,,0.18,WeatherCatV1.12B45,2013-02-22 22:04:00,
2013-02-22 14:09:00,42.7,42.7,29.77,South,188,5.0,5.0,100,0.00,,,0.18,WeatherCatV1.12B45,2013-02-22 22:09:00,
2013-02-22 14:14:00,42.8,42.8,29.77,SSW,202,2.0,3.0,100,0.00,,,0.18,WeatherCatV1.12B45,2013-02-22 22:14:00,
2013-02-22 14:19:00,42.9,42.9,29.77,SSW,193,0.0,6.0,100,0.00,,,0.18,WeatherCatV1.12B45,2013-02-22 22:19:00,
2013-02-22 14:24:00,43.0,43.0,29.77,South,173,3.0,4.0,100,0.00,,,0.18,WeatherCatV1.12B45,2013-02-22 22:24:00,
2013-02-22 14:29:00,43.2,43.2,29.77,South,182,2.0,5.0,100,0.00,,,0.18,WeatherCatV1.12B45,2013-02-22 22:29:00,
2013-02-22 14:34:00,43.5,43.5,29.77,South,183,3.0,6.0,100,0.00,,,0.19,WeatherCatV1.12B45,2013-02-22 22:34:00,
2013-02-22 14:39:00,43.9,43.9,29.77,South,173,3.0,6.0,100,0.00,,,0.19,WeatherCatV1.12B45,2013-02-22 22:39:00,
2013-02-22 14:44:00,44.3,44.3,29.77,South,176,3.0,4.0,100,0.00,,,0.19,WeatherCatV1.12B45,2013-02-22 22:44:00,
2013-02-22 14:49:00,44.8,44.8,29.77,SSE,163,0.0,4.0,100,0.00,,,0.19,WeatherCatV1.12B45,2013-02-22 22:49:00,
2013-02-22 14:54:00,45.5,45.5,29.77,SSW,206,4.0,4.0,100,0.00,,,0.19,WeatherCatV1.12B45,2013-02-22 22:54:00,
2013-02-22 14:59:00,46.4,46.4,29.77,South,185,5.0,6.0,100,0.00,,,0.20,WeatherCatV1.12B45,2013-02-22 22:59:00,
2013-02-22 15:04:00,47.1,47.1,29.76,SSE,162,6.0,12.0,100,0.00,,,0.20,WeatherCatV1.12B45,2013-02-22 23:04:00,
2013-02-22 15:09:00,47.0,47.0,29.78,SW,233,5.0,12.0,100,0.00,,,0.20,WeatherCatV1.12B45,2013-02-22 23:09:00,
2013-02-22 15:14:00,46.3,45.2,29.78,WNW,300,15.0,15.0,96,0.00,,,0.20,WeatherCatV1.12B45,2013-02-22 23:14:00,
2013-02-22 15:19:00,45.2,43.6,29.79,South,184,5.0,16.0,94,0.00,,,0.20,WeatherCatV1.12B45,2013-02-22 23:19:00,
2013-02-22 15:24:00,44.6,43.0,29.79,SSW,209,3.0,24.0,94,0.00,,,0.21,WeatherCatV1.12B45,2013-02-22 23:24:00,
2013-02-22 15:29:00,44.7,43.9,29.79,SE,130,5.0,8.0,97,0.00,,,0.21,WeatherCatV1.12B45,2013-02-22 23:29:00,
2013-02-22 15:34:00,45.1,44.0,29.79,SSW,196,5.0,17.0,96,0.00,,,0.21,WeatherCatV1.12B45,2013-02-22 23:34:00,
2013-02-22 15:39:00,45.5,44.4,29.79,SSW,203,8.0,12.0,96,0.00,,,0.21,WeatherCatV1.12B45,2013-02-22 23:39:00,
2013-02-22 15:44:00,45.7,43.2,29.80,WSW,252,6.0,17.0,91,0.00,,,0.22,WeatherCatV1.12B45,2013-02-22 23:44:00,
2013-02-22 15:49:00,45.8,43.3,29.80,SW,223,9.0,16.0,91,0.00,,,0.22,WeatherCatV1.12B45,2013-02-22 23:49:00,
2013-02-22 15:54:00,45.8,43.0,29.80,WSW,241,10.0,10.0,90,0.00,,,0.22,WeatherCatV1.12B45,2013-02-22 23:54:00,
2013-02-22 15:59:00,45.6,42.3,29.80,SW,225,5.0,12.0,88,0.00,,,0.22,WeatherCatV1.12B45,2013-02-22 23:59:00,
2013-02-22 16:04:00,45.6,42.8,29.80,SSW,205,5.0,8.0,90,0.00,,,0.23,WeatherCatV1.12B45,2013-02-23 00:04:00,
2013-02-22 16:09:00,45.5,42.7,29.81,SW,219,10.0,10.0,90,0.00,,,0.23,WeatherCatV1.12B45,2013-02-23 00:09:00,
2013-02-22 16:14:00,45.3,42.3,29.80,SW,236,8.0,9.0,89,0.00,,,0.23,WeatherCatV1.12B45,2013-02-23 00:14:00,
2013-02-22 16:19:00,44.9,41.6,29.81,WSW,252,11.0,12.0,88,0.00,,,0.24,WeatherCatV1.12B45,2013-02-23 00:19:00,
2013-02-22 16:24:00,44.3,41.0,29.81,SSW,200,13.0,13.0,88,0.00,,,0.24,WeatherCatV1.12B45,2013-02-23 00:24:00,
2013-02-22 16:29:00,44.0,41.0,29.81,South,177,4.0,14.0,89,0.00,,,0.24,WeatherCatV1.12B45,2013-02-23 00:29:00,
2013-02-22 16:34:00,43.8,40.5,29.81,SSW,211,4.0,11.0,88,0.00,,,0.24,WeatherCatV1.12B45,2013-02-23 00:34:00,
2013-02-22 16:39:00,43.7,40.7,29.82,SSW,193,3.0,14.0,89,0.00,,,0.25,WeatherCatV1.12B45,2013-02-23 00:39:00,
2013-02-22 16:44:00,43.4,41.0,29.83,WSW,256,3.0,7.0,91,0.00,,,0.25,WeatherCatV1.12B45,2013-02-23 00:44:00,
2013-02-22 16:50:00,42.8,40.4,29.83,SW,228,4.0,9.0,91,0.00,,,0.25,WeatherCatV1.12B45,2013-02-23 00:50:00,
2013-02-22 16:55:00,42.2,40.6,29.82,SSE,166,1.0,6.0,94,0.00,,,0.25,WeatherCatV1.12B45,2013-02-23 00:55:00,
2013-02-22 17:00:00,41.9,40.6,29.83,West,267,10.0,15.0,95,0.00,,,0.26,WeatherCatV1.12B45,2013-02-23 01:00:00,
2013-02-22 17:05:00,41.5,39.6,29.83,WSW,247,9.0,10.0,93,0.00,,,0.26,WeatherCatV1.12B45,2013-02-23 01:05:00,
2013-02-22 17:10:00,41.3,39.7,29.82,SSW,207,6.0,16.0,94,0.00,,,0.26,WeatherCatV1.12B45,2013-02-23 01:10:00,
2013-02-22 17:15:00,41.0,38.9,29.83,SSW,194,8.0,10.0,92,0.00,,,0.26,WeatherCatV1.12B45,2013-02-23 01:15:00,
2013-02-22 17:20:00,40.8,38.7,29.83,WSW,241,10.0,12.0,92,0.00,,,0.27,WeatherCatV1.12B45,2013-02-23 01:20:00,
2013-02-22 17:25:00,40.8,38.9,29.84,SW,234,6.0,7.0,93,0.00,,,0.27,WeatherCatV1.12B45,2013-02-23 01:25:00,
2013-02-22 17:30:00,40.6,39.0,29.84,SSW,213,7.0,9.0,94,0.00,,,0.27,WeatherCatV1.12B45,2013-02-23 01:30:00,
2013-02-22 17:35:00,40.4,38.5,29.84,SE,142,3.0,6.0,93,0.00,,,0.27,WeatherCatV1.12B45,2013-02-23 01:35:00,
2013-02-22 17:40:00,40.1,38.0,29.84,SW,227,6.0,12.0,92,0.00,,,0.28,WeatherCatV1.12B45,2013-02-23 01:40:00,
2013-02-22 17:45:00,40.0,38.1,29.84,South,187,5.0,8.0,93,0.00,,,0.28,WeatherCatV1.12B45,2013-02-23 01:45:00,
2013-02-22 17:50:00,39.8,37.9,29.84,SW,231,0.0,5.0,93,0.00,,,0.28,WeatherCatV1.12B45,2013-02-23 01:50:00,
2013-02-22 17:55:00,39.6,37.7,29.85,SW,228,8.0,10.0,93,0.00,,,0.28,WeatherCatV1.12B45,2013-02-23 01:55:00,
2013-02-22 18:00:00,39.5,37.6,29.85,SW,216,0.0,5.0,93,0.00,,,0.29,WeatherCatV1.12B45,2013-02-23 02:00:00,
2013-02-22 18:05:00,39.3,37.4,29.85,SW,219,1.0,4.0,93,0.00,,,0.29,WeatherCatV1.12B45,2013-02-23 02:05:00,
2013-02-22 18:10:00,39.2,37.6,29.86,South,171,0.0,1.0,94,0.00,,,0.29,WeatherCatV1.12B45,2013-02-23 02:10:00,
2013-02-22 18:15:00,39.1,37.8,29.86,SW,217,0.0,1.0,95,0.00,,,0.29,WeatherCatV1.12B45,2013-02-23 02:15:00,
2013-02-22 18:20:00,39.1,38.1,29.86,South,174,1.0,2.0,96,0.00,,,0.30,WeatherCatV1.12B45,2013-02-23 02:20:00,
2013-02-22 18:25:00,39.1,38.1,29.86,SW,229,2.0,4.0,96,0.00,,,0.30,WeatherCatV1.12B45,2013-02-23 02:25:00,
2013-02-22 18:30:00,39.3,38.3,29.88,NNE,21,1.0,7.0,96,0.00,,,0.30,WeatherCatV1.12B45,2013-02-23 02:30:00,
2013-02-22 18:35:00,39.0,37.2,29.88,SW,236,3.0,3.0,93,0.00,,,0.30,WeatherCatV1.12B45,2013-02-23 02:35:00,
2013-02-22 18:40:00,38.5,36.4,29.87,SSW,197,5.0,12.0,92,0.00,,,0.30,WeatherCatV1.12B45,2013-02-23 02:40:00,
2013-02-22 18:45:00,38.2,36.4,29.87,SW,222,7.0,11.0,93,0.00,,,0.31,WeatherCatV1.12B45,2013-02-23 02:45:00,
2013-02-22 18:50:00,38.0,36.2,29.87,South,188,2.0,7.0,93,0.00,,,0.31,WeatherCatV1.12B45,2013-02-23 02:50:00,
2013-02-22 18:55:00,37.8,36.2,29.87,South,184,1.0,2.0,94,0.00,,,0.31,WeatherCatV1.12B45,2013-02-23 02:55:00,
2013-02-22 19:00:00,37.6,36.3,29.87,SW,220,2.0,4.0,95,0.00,,,0.31,WeatherCatV1.12B45,2013-02-23 03:00:00,
2013-02-22 19:05:00,37.5,36.2,29.88,SW,225,5.0,6.0,95,0.00,,,0.32,WeatherCatV1.12B45,2013-02-23 03:05:00,
2013-02-22 19:10:00,37.5,36.5,29.89,SSW,205,12.0,25.0,96,0.00,,,0.32,WeatherCatV1.12B45,2013-02-23 03:10:00,
2013-02-22 19:15:00,38.0,36.4,29.88,SSE,163,6.0,23.0,94,0.00,,,0.32,WeatherCatV1.12B45,2013-02-23 03:15:00,
2013-02-22 19:20:00,37.9,36.6,29.88,SSW,202,3.0,6.0,95,0.00,,,0.32,WeatherCatV1.12B45,2013-02-23 03:20:00,
2013-02-22 19:25:00,37.8,36.5,29.88,SW,236,2.0,8.0,95,0.00,,,0.32,WeatherCatV1.12B45,2013-02-23 03:25:00,
2013-02-22 19:30:00,37.5,36.2,29.88,SE,144,3.0,6.0,95,0.00,,,0.33,WeatherCatV1.12B45,2013-02-23 03:30:00,
2013-02-22 19:35:00,37.1,35.8,29.88,South,179,2.0,5.0,95,0.00,,,0.33,WeatherCatV1.12B45,2013-02-23 03:35:00,
2013-02-22 19:40:00,37.0,35.7,29.88,SW,226,1.0,4.0,95,0.00,,,0.33,WeatherCatV1.12B45,2013-02-23 03:40:00,
2013-02-22 19:45:00,36.8,35.5,29.88,SSE,164,0.0,4.0,95,0.00,,,0.33,WeatherCatV1.12B45,2013-02-23 03:45:00,
2013-02-22 19:50:00,36.8,35.5,29.88,WSW,250,4.0,9.0,95,0.00,,,0.34,WeatherCatV1.12B45,2013-02-23 03:50:00,
2013-02-22 19:55:00,36.8,35.8,29.89,WSW,246,2.0,5.0,96,0.00,,,0.34,WeatherCatV1.12B45,2013-02-23 03:55:00,
2013-02-22 20:00:00,36.6,35.6,29.89,SSW,198,1.0,4.0,96,0.00,,,0.34,WeatherCatV1.12B45,2013-02-23 04:00:00,
2013-02-22 20:05:00,36.5,35.5,29.89,South,170,1.0,8.0,96,0.00,,,0.34,WeatherCatV1.12B45,2013-02-23 04:05:00,
2013-02-22 20:10:00,36.5,35.5,29.90,SSW,213,0.0,0.0,96,0.00,,,0.34,WeatherCatV1.12B45,2013-02-23 04:10:00,
2013-02-22 20:15:00,36.5,35.5,29.90,SSE,168,3.0,4.0,96,0.00,,,0.35,WeatherCatV1.12B45,2013-02-23 04:15:00,
2013-02-22 20:20:00,36.4,35.4,29.90,SSE,157,0.0,3.0,96,0.00,,,0.35,WeatherCatV1.12B45,2013-02-23 04:20:00,
2013-02-22 20:25:00,36.4,35.4,29.90,SSE,158,0.0,1.0,96,0.00,,,0.35,WeatherCatV1.12B45,2013-02-23 04:25:00,
2013-02-22 20:30:00,36.4,35.4,29.90,SSE,158,4.0,4.0,96,0.00,,,0.35,WeatherCatV1.12B45,2013-02-23 04:30:00,
2013-02-22 20:35:00,36.4,35.4,29.90,South,172,1.0,3.0,96,0.00,,,0.36,WeatherCatV1.12B45,2013-02-23 04:35:00,
2013-02-22 20:40:00,36.4,35.4,29.90,SSE,168,0.0,2.0,96,0.00,,,0.36,WeatherCatV1.12B45,2013-02-23 04:40:00,
2013-02-22 20:45:00,36.3,35.3,29.90,SSE,166,3.0,4.0,96,0.00,,,0.36,WeatherCatV1.12B45,2013-02-23 04:45:00,
2013-02-22 20:50:00,36.3,35.5,29.90,South,180,3.0,3.0,97,0.00,,,0.36,WeatherCatV1.12B45,2013-02-23 04:50:00,
2013-02-22 20:56:00,36.3,35.5,29.90,South,182,3.0,4.0,97,0.00,,,0.36,WeatherCatV1.12B45,2013-02-23 04:56:00,
2013-02-22 21:00:00,36.3,35.5,29.90,South,184,2.0,3.0,97,0.00,,,0.37,WeatherCatV1.12B45,2013-02-23 05:00:00,
2013-02-22 21:05:00,36.3,35.5,29.90,South,184,1.0,4.0,97,0.00,,,0.37,WeatherCatV1.12B45,2013-02-23 05:05:00,
2013-02-22 21:10:00,36.3,35.8,29.91,South,176,2.0,4.0,98,0.00,,,0.37,WeatherCatV1.12B45,2013-02-23 05:10:00,
2013-02-22 21:15:00,36.4,35.9,29.91,South,172,3.0,5.0,98,0.00,,,0.37,WeatherCatV1.12B45,2013-02-23 05:15:00,
2013-02-22 21:20:00,36.4,35.9,29.91,SSW,205,3.0,4.0,98,0.00,,,0.37,WeatherCatV1.12B45,2013-02-23 05:20:00,
2013-02-22 21:25:00,36.6,36.1,29.91,South,173,3.0,5.0,98,0.00,,,0.38,WeatherCatV1.12B45,2013-02-23 05:25:00,
2013-02-22 21:30:00,36.8,36.3,29.92,SSW,200,3.0,5.0,98,0.00,,,0.38,WeatherCatV1.12B45,2013-02-23 05:30:00,
2013-02-22 21:35:00,37.0,36.5,29.92,SW,226,2.0,8.0,98,0.00,,,0.38,WeatherCatV1.12B45,2013-02-23 05:35:00,
2013-02-22 21:40:00,37.1,36.6,29.93,SSW,212,3.0,4.0,98,0.00,,,0.38,WeatherCatV1.12B45,2013-02-23 05:40:00,
2013-02-22 21:45:00,37.2,36.7,29.92,SSW,213,2.0,7.0,98,0.00,,,0.38,WeatherCatV1.12B45,2013-02-23 05:45:00,
2013-02-22 21:50:00,37.2,36.4,29.93,SSE,161,2.0,2.0,97,0.00,,,0.38,WeatherCatV1.12B45,2013-02-23 05:50:00,
2013-02-22 21:55:00,37.2,36.7,29.93,South,180,2.0,3.0,98,0.00,,,0.39,WeatherCatV1.12B45,2013-02-23 05:55:00,
2013-02-22 22:00:00,37.2,36.7,29.93,South,181,0.0,3.0,98,0.00,,,0.39,WeatherCatV1.12B45,2013-02-23 06:00:00,
2013-02-22 22:05:00,37.2,36.7,29.93,South,172,2.0,3.0,98,0.00,,,0.39,WeatherCatV1.12B45,2013-02-23 06:05:00,
2013-02-22 22:10:00,37.2,36.7,29.93,South,184,4.0,6.0,98,0.00,,,0.39,WeatherCatV1.12B45,2013-02-23 06:10:00,
2013-02-22 22:15:00,37.3,36.8,29.93,South,186,5.0,5.0,98,0.00,,,0.40,WeatherCatV1.12B45,2013-02-23 06:15:00,
2013-02-22 22:17:00,37.4,36.9,29.93,South,181,4.0,6.0,98,0.00,,,0.40,WeatherCatV1.12B45,2013-02-23 06:17:00,
2013-02-22 22:18:00,37.3,36.8,29.93,SSW,198,2.0,6.0,98,0.00,,,0.40,WeatherCatV1.12B45,2013-02-23 06:18:00,
2013-02-22 22:23:00,37.5,37.0,29.94,SSE,167,4.0,5.0,98,0.00,,,0.40,WeatherCatV1.12B45,2013-02-23 06:23:00,
2013-02-22 22:28:00,37.6,37.1,29.94,SSE,149,1.0,3.0,98,0.00,,,0.40,WeatherCatV1.12B45,2013-02-23 06:28:00,
2013-02-22 22:33:00,37.6,36.8,29.94,South,190,0.0,3.0,97,0.00,,,0.40,WeatherCatV1.12B45,2013-02-23 06:33:00,
2013-02-22 22:38:00,37.7,36.9,29.94,South,182,4.0,6.0,97,0.00,,,0.40,WeatherCatV1.12B45,2013-02-23 06:38:00,
2013-02-22 22:43:00,37.7,36.9,29.95,SSW,196,0.0,4.0,97,0.00,,,0.41,WeatherCatV1.12B45,2013-02-23 06:43:00,
2013-02-22 22:48:00,37.8,37.0,29.96,SW,214,1.0,4.0,97,0.00,,,0.41,WeatherCatV1.12B45,2013-02-23 06:48:00,
2013-02-22 22:53:00,37.8,37.0,29.96,SSE,155,1.0,3.0,97,0.00,,,0.41,WeatherCatV1.12B45,2013-02-23 06:53:00,
2013-02-22 22:58:00,37.7,36.9,29.96,ESE,113,2.0,2.0,97,0.00,,,0.41,WeatherCatV1.12B45,2013-02-23 06:58:00,
2013-02-22 23:03:00,37.6,36.8,29.96,South,182,0.0,2.0,97,0.00,,,0.41,WeatherCatV1.12B45,2013-02-23 07:03:00,
2013-02-22 23:08:00,37.5,36.7,29.96,South,178,1.0,3.0,97,0.00,,,0.42,WeatherCatV1.12B45,2013-02-23 07:08:00,
2013-02-22 23:13:00,37.5,36.7,29.96,WSW,240,2.0,4.0,97,0.00,,,0.42,WeatherCatV1.12B45,2013-02-23 07:13:00,
2013-02-22 23:18:00,37.4,36.6,29.97,South,175,2.0,3.0,97,0.00,,,0.42,WeatherCatV1.12B45,2013-02-23 07:18:00,
2013-02-22 23:23:00,37.4,36.6,29.97,SW,221,1.0,4.0,97,0.00,,,0.42,WeatherCatV1.12B45,2013-02-23 07:23:00,
2013-02-22 23:28:00,37.4,36.6,29.98,SSW,203,3.0,4.0,97,0.00,,,0.42,WeatherCatV1.12B45,2013-02-23 07:28:00,
2013-02-22 23:33:00,37.3,36.5,29.98,South,169,0.0,1.0,97,0.00,,,0.43,WeatherCatV1.12B45,2013-02-23 07:33:00,
2013-02-22 23:38:00,37.3,36.5,29.98,SSE,168,0.0,4.0,97,0.00,,,0.43,WeatherCatV1.12B45,2013-02-23 07:38:00,
2013-02-22 23:43:00,37.3,36.5,29.97,SSE,168,1.0,2.0,97,0.00,,,0.43,WeatherCatV1.12B45,2013-02-23 07:43:00,
2013-02-22 23:48:00,37.1,36.3,29.97,South,178,3.0,3.0,97,0.00,,,0.43,WeatherCatV1.12B45,2013-02-23 07:48:00,
2013-02-22 23:53:00,37.1,36.6,29.97,SSE,161,2.0,2.0,98,0.00,,,0.44,WeatherCatV1.12B45,2013-02-23 07:53:00,
2013-02-22 23:58:00,37.1,36.6,29.98,SSW,200,1.0,2.0,98,0.00,,,0.44,WeatherCatV1.12B45,2013-02-23 07:58:00,